Tracking 19817 objects as of 17-Aug-2019
HD Live streaming from Space Station
objects crossing your sky now

FENGYUN 1C DEB

Track FENGYUN 1C DEB now!
10-day predictions


NORAD ID: 29807
Int'l Code: 1999-025CZ
Perigee: 818.7 km
Apogee: 936.7 km
Inclination: 98.9 °
Period: 102.4 minutes
Semi major axis: 7248 km
RCS: 0.0767 m2 (small)
Launch date: May 10, 1999
Source: People's Republic of China (PRC)
Launch site: Taiyaun Space Center, China (TSC)

Note: This is SATELLITE DEBRIS
aabbcc
Your satellite tracking list
Your tracking list is empty




NASA's NSSDC Master Catalog

Two Line Element Set (TLE):
1 29807U 99025CZ  19228.54243699 -.00000099  00000-0 -32103-4 0  9998
2 29807  98.9154 257.7865 0081442 350.6901   9.2754 14.06734144646059
Source of the keplerian elements: AFSPC